Location: York
(31.8935°S, 116.7682°E)
Time: 18:10:26
(UTC+08:00)

Hubble Space Telescope - Pass Details

Date: 19 May 2021
Orbit: 535 x 539 km, 28.5° (Epoch: 17 June)

Event Time Altitude Azimuth Distance (km) Brightness Sun altitude
Rises 18:55:46 0° 283° (WNW) 2,688 6.0 -19.9°
Reaches altitude 10° 18:58:04 10° 287° (WNW) 1,798 4.6 -20.3°
Maximum altitude 19:02:08 52° 4° (N) 677 1.2 -21.2°
Enters shadow 19:02:41 48° 34° (NNE) 716 1.2 -21.3°
